| time (UTC) | temp C | wind direction | speed KPH | gust KPH | rain 1hr cm | rain 24hr cm | rain mn cm | humidity % | barometer mb |
| 20260505040050 | 23 | 118 | 8.0 | 35.4 | 0.00 | 0.00 | 0.00 | 71 | 1010.8 |
| 20260505035406 | 23 | 165 | 11.3 | 32.2 | 0.00 | 0.00 | 0.00 | 71 | 1010.8 |
| 20260505035149 | 23 | 186 | 9.7 | 20.9 | 0.00 | 0.00 | 0.00 | 71 | 1011.0 |
| 20260505032248 | 23 | 141 | 9.7 | 22.5 | 0.00 | 0.00 | 0.00 | 71 | 1011.0 |
| 20260505030050 | 23 | 182 | 6.4 | 25.7 | 0.00 | 0.00 | 0.00 | 70 | 1010.9 |
| 20260505024549 | 23 | 172 | 8.0 | 20.9 | 0.00 | 0.00 | 0.00 | 70 | 1010.7 |
| 20260505023049 | 23 | 173 | 6.4 | 20.9 | 0.00 | 0.00 | 0.00 | 69 | 1010.7 |
| 20260505022244 | 23 | 161 | 9.7 | 25.7 | 0.00 | 0.00 | 0.00 | 69 | 1010.7 |
| 20260505020750 | 23 | 148 | 8.0 | 17.7 | 0.00 | 0.00 | 0.00 | 69 | 1010.5 |
| 20260505014548 | 23 | 147 | 6.4 | 17.7 | 0.00 | 0.00 | 0.00 | 69 | 1010.4 |
| 20260505013047 | 23 | 175 | 8.0 | 14.5 | 0.00 | 0.00 | 0.00 | 69 | 1010.2 |
| 20260505011548 | 23 | 188 | 6.4 | 14.5 | 0.00 | 0.00 | 0.00 | 68 | 1010.2 |
| 20260505010047 | 24 | 171 | 4.8 | 17.7 | 0.00 | 0.00 | 0.00 | 66 | 1010.3 |
| 20260505004546 | 25 | 168 | 3.2 | 14.5 | 0.00 | 0.00 | 0.00 | 65 | 1010.2 |
| 20260505003048 | 25 | 166 | 9.7 | 14.5 | 0.00 | 0.00 | 0.00 | 65 | 1010.1 |
| 20260505001546 | 25 | 178 | 6.4 | 14.5 | 0.00 | 0.00 | 0.00 | 64 | 1010.1 |
| 20260505000740 | 25 | 179 | 6.4 | 17.7 | 0.00 | 0.00 | 0.00 | 63 | 1010.3 |
| 20260504234545 | 26 | 158 | 9.7 | 25.7 | 0.00 | 0.00 | 0.00 | 61 | 1010.3 |
| 20260504233045 | 26 | 161 | 9.7 | 25.7 | 0.00 | 0.00 | 0.00 | 59 | 1010.3 |
| 20260504231544 | 26 | 186 | 6.4 | 25.7 | 0.00 | 0.00 | 0.00 | 57 | 1010.6 |
| 20260504230044 | 26 | 172 | 3.2 | 17.7 | 0.00 | 0.00 | 0.00 | 55 | 1010.7 |
| 20260504224545 | 27 | 175 | 9.7 | 25.7 | 0.00 | 0.00 | 0.00 | 55 | 1010.7 |
| 20260504223044 | 27 | 185 | 11.3 | 20.9 | 0.00 | 0.00 | 0.00 | 53 | 1010.9 |
| 20260504221543 | 27 | 169 | 6.4 | 17.7 | 0.00 | 0.00 | 0.00 | 53 | 1011.0 |
| 20260504220738 | 27 | 165 | 9.7 | 17.7 | 0.00 | 0.00 | 0.00 | 53 | 1011.0 |
| 20260504214542 | 27 | 141 | 8.0 | 20.9 | 0.00 | 0.00 | 0.00 | 52 | 1011.1 |
| 20260504213042 | 27 | 141 | 6.4 | 14.5 | 0.00 | 0.00 | 0.00 | 51 | 1011.3 |
| 20260504211543 | 27 | 113 | 8.0 | 22.5 | 0.00 | 0.00 | 0.00 | 50 | 1011.5 |
| 20260504210042 | 27 | 220 | 11.3 | 25.7 | 0.00 | 0.00 | 0.00 | 50 | 1011.7 |
| 20260504204541 | 28 | 162 | 4.8 | 20.9 | 0.00 | 0.00 | 0.00 | 51 | 1012.1 |
| 20260504203041 | 28 | 176 | 4.8 | 25.7 | 0.00 | 0.00 | 0.00 | 50 | 1012.2 |
| 20260504201541 | 28 | 241 | 8.0 | 17.7 | 0.00 | 0.00 | 0.00 | 47 | 1012.5 |
| 20260504200740 | 28 | 216 | 8.0 | 20.9 | 0.00 | 0.00 | 0.00 | 50 | 1012.8 |
| 20260504194539 | 27 | 171 | 8.0 | 22.5 | 0.00 | 0.00 | 0.00 | 49 | 1013.1 |
| 20260504193038 | 27 | 224 | 12.9 | 22.5 | 0.00 | 0.00 | 0.00 | 50 | 1013.2 |
| 20260504191538 | 27 | 107 | 6.4 | 17.7 | 0.00 | 0.00 | 0.00 | 51 | 1013.3 |
| 20260504190038 | 27 | 152 | 8.0 | 20.9 | 0.00 | 0.00 | 0.00 | 50 | 1013.8 |
| 20260504184538 | 27 | 159 | 14.5 | 22.5 | 0.00 | 0.00 | 0.00 | 49 | 1013.8 |
| 20260504183037 | 26 | 175 | 9.7 | 22.5 | 0.00 | 0.00 | 0.00 | 51 | 1013.9 |
| 20260504181536 | 26 | 148 | 9.7 | 20.9 | 0.00 | 0.00 | 0.00 | 51 | 1014.1 |
| 20260504180037 | 27 | 171 | 8.0 | 22.5 | 0.00 | 0.00 | 0.00 | 52 | 1014.3 |
| 20260504174536 | 26 | 123 | 9.7 | 20.9 | 0.00 | 0.00 | 0.00 | 48 | 1014.4 |
| 20260504173035 | 26 | 93 | 14.5 | 29.0 | 0.00 | 0.00 | 0.00 | 50 | 1014.7 |
| 20260504171533 | 26 | 162 | 9.7 | 38.6 | 0.00 | 0.00 | 0.00 | 54 | 1014.9 |
| 20260504081504 | 15 | 161 | 0.0 | 0.0 | 0.00 | 0.00 | 0.00 | 74 | 1016.5 |
| 20260504050703 | 17 | 161 | 0.0 | 3.2 | 0.00 | 0.00 | 0.00 | 63 | 1018.1 |